Flag for U.S.A. Weather past 2 weeks in Petersburg, Indiana, U.S.A.

Now
34 °F

Overcast.


Feels Like: 27 °F
Forecast: 28 / 35 °F
Wind: 8 mph from Northwest

Location: Huntingburg Airport

Current Time: Dec 17, 2014 at 5:08:09 PM

Latest Report: Dec 17, 2014 at 4:35 PM


Visibility: 10 mi

Pressure: 30.30 "Hg

Humidity: 65%

Dew point: 23 °F

Location of PetersburgLocation

Historic Weather in Petersburg — Graph

°F

Petersburg temperature yesterday

Maximum temperature yesterday: 52 °F (at 12:15 AM)
Minimum temperature yesterday: 34 °F (at 11:55 PM)
Average temperature yesterday: 42 °F

Past Weeks' High & Low Weather Summary

 TemperatureHumidityPressure
High57 °F (Dec 5, 6:35 PM)94% (Dec 5, 11:35 AM)30.58 "Hg (Dec 5, 11:35 AM)
Low21 °F (Dec 12, 5:55 AM)53% (Dec 3, 4:15 PM)29.72 "Hg (Dec 16, 12:35 AM)
Average39 °F79%30.24 "Hg
* Reported Dec 2 3:15 PM — Dec 17 3:55 PM, Petersburg, Weather by CustomWeather, © 2014

Note: Actual official high and low records may vary slightly from our data, if they occured in-between our weather recording intervals... More about our weather records

Advertising

Petersburg weather history for previous 24 hours

 ConditionsComfort  
Time TempWeatherWind HumidityBarometerVisibility
3:55 PM
Dec 17
34 °FOvercast.7 mph65%30.28 "Hg10 mi
3:35 PM34 °FOvercast.9 mph65%30.27 "Hg10 mi
3:15 PM34 °FOvercast.10 mph65%30.26 "Hg10 mi
2:55 PM34 °FOvercast.6 mph70%30.26 "Hg10 mi
2:35 PM36 °FOvercast.7 mph65%30.26 "Hg10 mi
2:15 PM34 °FOvercast.5 mph65%30.26 "Hg10 mi
1:55 PM34 °FOvercast.3 mph65%30.27 "Hg10 mi
1:35 PM34 °FOvercast.6 mph70%30.28 "Hg10 mi
1:15 PM34 °FPartly sunny.7 mph65%30.29 "Hg10 mi
12:55 PM34 °FPartly sunny.6 mph65%30.29 "Hg10 mi
12:35 PM34 °FOvercast.8 mph65%30.30 "Hg10 mi
12:15 PM34 °FOvercast.7 mph65%30.31 "Hg10 mi
11:55 AM32 °FOvercast.7 mph69%30.32 "Hg10 mi
11:35 AM32 °FOvercast.8 mph69%30.33 "Hg10 mi
11:15 AM32 °FOvercast.6 mph69%30.33 "Hg10 mi
10:55 AM30 °FOvercast.6 mph75%30.33 "Hg10 mi
10:35 AM30 °FOvercast.7 mph75%30.33 "Hg10 mi
10:15 AM30 °FOvercast.7 mph75%30.33 "Hg10 mi
9:55 AM30 °FOvercast.8 mph75%30.33 "Hg10 mi
9:35 AM30 °FOvercast.8 mph75%30.33 "Hg10 mi
9:15 AM30 °FOvercast.7 mph75%30.33 "Hg10 mi
8:55 AM30 °FOvercast.8 mph75%30.32 "Hg10 mi
8:35 AM30 °FOvercast.9 mph75%30.32 "Hg10 mi
8:15 AM30 °FOvercast.10 mph75%30.31 "Hg10 mi
7:55 AM30 °FOvercast.9 mph75%30.31 "Hg10 mi
7:35 AM30 °FOvercast.10 mph75%30.30 "Hg10 mi
7:15 AM30 °FOvercast.8 mph75%30.30 "Hg10 mi
6:55 AM30 °FOvercast.12 mph75%30.29 "Hg10 mi
6:35 AM30 °FOvercast.7 mph75%30.29 "Hg10 mi
6:15 AM30 °FOvercast.10 mph80%30.28 "Hg10 mi
5:55 AM30 °FOvercast.10 mph80%30.28 "Hg10 mi
5:35 AM32 °FOvercast.12 mph75%30.27 "Hg10 mi
5:15 AM32 °FOvercast.7 mph75%30.27 "Hg10 mi
4:55 AM32 °FOvercast.8 mph75%30.28 "Hg10 mi
4:35 AM34 °FOvercast.10 mph75%30.27 "Hg10 mi
4:15 AM34 °FOvercast.10 mph75%30.28 "Hg10 mi
3:55 AM34 °FOvercast.12 mph75%30.27 "Hg10 mi
3:35 AM34 °FOvercast.8 mph75%30.27 "Hg10 mi
3:15 AM34 °FOvercast.8 mph75%30.27 "Hg10 mi
2:55 AM34 °FOvercast.5 mph75%30.26 "Hg10 mi
2:35 AM34 °FOvercast.9 mph75%30.26 "Hg10 mi
2:15 AM34 °FOvercast.12 mph75%30.25 "Hg10 mi
1:55 AM34 °FOvercast.8 mph75%30.25 "Hg10 mi
1:35 AM34 °FOvercast.8 mph75%30.25 "Hg10 mi
1:15 AM34 °FOvercast.12 mph75%30.25 "Hg10 mi
12:55 AM34 °FOvercast.12 mph75%30.24 "Hg10 mi
12:35 AM34 °FOvercast.13 mph75%30.24 "Hg10 mi
12:15 AM34 °FOvercast.12 mph75%30.25 "Hg10 mi
11:55 PM
Dec 16
34 °FOvercast.12 mph75%30.25 "Hg10 mi
11:35 PM36 °FOvercast.14 mph70%30.24 "Hg10 mi
11:15 PM36 °FOvercast.15 mph70%30.23 "Hg10 mi
10:55 PM36 °FOvercast.13 mph75%30.22 "Hg10 mi
10:35 PM36 °FOvercast.12 mph75%30.22 "Hg10 mi
10:15 PM36 °FOvercast.13 mph75%30.21 "Hg10 mi
9:55 PM36 °FOvercast.9 mph75%30.21 "Hg10 mi
9:35 PM36 °FOvercast.10 mph75%30.20 "Hg10 mi
9:15 PM36 °FMostly cloudy.13 mph75%30.20 "Hg10 mi
8:55 PM36 °FMostly cloudy.15 mph75%30.20 "Hg10 mi
8:35 PM37 °FMostly cloudy.16 mph75%30.20 "Hg10 mi
8:15 PM37 °FOvercast.14 mph75%30.18 "Hg10 mi
7:55 PM37 °FOvercast.14 mph75%30.19 "Hg10 mi
7:35 PM37 °FOvercast.17 mph75%30.19 "Hg10 mi
6:55 PM37 °FOvercast.12 mph75%30.17 "Hg10 mi
6:35 PM37 °FOvercast.20 mph75%30.17 "Hg10 mi
6:15 PM37 °FOvercast.15 mph81%30.15 "Hg10 mi
5:55 PM37 °FOvercast.14 mph87%30.13 "Hg10 mi
5:35 PM37 °FOvercast.14 mph87%30.13 "Hg10 mi
5:15 PM37 °FOvercast.13 mph87%30.12 "Hg10 mi
Weather by CustomWeather, © 2014

See weather overviewHow to use our weather pages